Time,TemperatureF,DewpointF,PressureIn,WindDirection,WindDirectionDegrees,WindSpeedMPH,WindSpeedGustMPH,Humidity,HourlyPrecipIn,Conditions,Clouds,dailyrainin,SoftwareType,DateUTC
2013-10-27 00:01:00,50.5,34.0,30.12,North,0,0.0,0.0,53,0.00,CLR,FEW,0.00,WeatherDisplay:10.37,2013-10-27 04:01:00,
2013-10-27 00:03:00,50.5,34.0,30.12,North,0,0.0,0.0,53,0.00,CLR,FEW,0.00,WeatherDisplay:10.37,2013-10-27 04:03:00,
2013-10-27 00:05:00,50.7,34.2,30.12,North,0,0.0,0.0,53,0.00,CLR,FEW,0.00,WeatherDisplay:10.37,2013-10-27 04:05:00,
2013-10-27 00:06:00,50.7,34.2,30.12,North,0,0.0,0.0,53,0.00,CLR,FEW,0.00,WeatherDisplay:10.37,2013-10-27 04:06:00,
2013-10-27 00:07:00,50.7,34.2,30.12,North,0,0.0,0.0,53,0.00,CLR,FEW,0.00,WeatherDisplay:10.37,2013-10-27 04:07:00,
2013-10-27 00:12:00,50.9,34.4,30.12,North,0,0.0,0.0,53,0.00,CLR,FEW,0.00,WeatherDisplay:10.37,2013-10-27 04:12:00,
2013-10-27 00:17:00,51.1,34.1,30.12,North,0,0.0,0.0,52,0.00,CLR,FEW,0.00,WeatherDisplay:10.37,2013-10-27 04:17:00,
2013-10-27 00:22:00,51.3,33.7,30.12,North,0,0.0,0.0,51,0.00,CLR,FEW,0.00,WeatherDisplay:10.37,2013-10-27 04:22:00,
2013-10-27 00:27:00,51.1,33.1,30.12,North,0,0.0,0.0,50,0.00,CLR,FEW,0.00,WeatherDisplay:10.37,2013-10-27 04:27:00,
2013-10-27 00:32:00,51.3,32.2,30.12,North,0,0.0,0.0,48,0.00,CLR,FEW,0.00,WeatherDisplay:10.37,2013-10-27 04:32:00,
2013-10-27 00:37:00,51.3,31.7,30.12,North,0,0.0,0.0,47,0.00,CLR,FEW,0.00,WeatherDisplay:10.37,2013-10-27 04:37:00,
2013-10-27 00:42:00,51.1,31.5,30.12,North,0,0.0,0.0,47,0.00,CLR,FEW,0.00,WeatherDisplay:10.37,2013-10-27 04:42:00,
2013-10-27 00:47:00,51.1,31.5,30.12,North,0,0.0,0.0,47,0.00,CLR,FEW,0.00,WeatherDisplay:10.37,2013-10-27 04:47:00,
2013-10-27 00:52:00,50.9,31.4,30.12,North,0,0.0,0.0,47,0.00,CLR,FEW,0.00,WeatherDisplay:10.37,2013-10-27 04:52:00,
2013-10-27 00:57:00,50.9,31.4,30.12,North,0,0.0,0.0,47,0.00,CLR,FEW,0.00,WeatherDisplay:10.37,2013-10-27 04:57:00,
2013-10-27 01:02:00,50.9,31.4,30.12,North,0,0.0,0.0,47,0.00,CLR,FEW,0.00,WeatherDisplay:10.37,2013-10-27 05:02:00,
2013-10-27 01:07:00,50.9,31.4,30.12,North,0,0.0,0.0,47,0.00,CLR,FEW,0.00,WeatherDisplay:10.37,2013-10-27 05:07:00,
2013-10-27 01:12:00,50.7,31.2,30.12,North,0,0.0,0.0,47,0.00,CLR,FEW,0.00,WeatherDisplay:10.37,2013-10-27 05:12:00,
2013-10-27 01:18:00,50.7,31.7,30.09,North,0,0.0,0.0,48,0.00,CLR,FEW,0.00,WeatherDisplay:10.37,2013-10-27 05:18:00,
2013-10-27 01:23:00,50.7,31.7,30.09,North,0,0.0,0.0,48,0.00,CLR,FEW,0.00,WeatherDisplay:10.37,2013-10-27 05:23:00,
2013-10-27 01:28:00,50.7,31.2,30.09,North,0,0.0,0.0,47,0.00,CLR,FEW,0.00,WeatherDisplay:10.37,2013-10-27 05:28:00,
2013-10-27 01:33:00,50.7,31.2,30.12,North,0,0.0,0.0,47,0.00,CLR,FEW,0.00,WeatherDisplay:10.37,2013-10-27 05:33:00,
2013-10-27 01:38:00,50.9,31.4,30.12,North,0,0.0,0.0,47,0.00,CLR,FEW,0.00,WeatherDisplay:10.37,2013-10-27 05:38:00,
2013-10-27 01:43:00,50.9,30.8,30.12,North,0,0.0,0.0,46,0.00,CLR,FEW,0.00,WeatherDisplay:10.37,2013-10-27 05:43:00,
2013-10-27 01:48:00,50.9,30.8,30.12,North,0,0.0,0.0,46,0.00,CLR,FEW,0.00,WeatherDisplay:10.37,2013-10-27 05:48:00,
2013-10-27 01:53:00,50.9,30.8,30.12,North,0,0.0,0.0,46,0.00,CLR,FEW,0.00,WeatherDisplay:10.37,2013-10-27 05:53:00,
2013-10-27 01:58:00,50.9,30.8,30.09,North,0,0.0,0.0,46,0.00,CLR,FEW,0.00,WeatherDisplay:10.37,2013-10-27 05:58:00,
2013-10-27 02:03:00,50.9,30.3,30.09,North,0,0.0,0.0,45,0.00,CLR,FEW,0.00,WeatherDisplay:10.37,2013-10-27 06:03:00,
2013-10-27 02:08:00,50.9,30.3,30.09,North,0,0.0,0.0,45,0.00,CLR,FEW,0.00,WeatherDisplay:10.37,2013-10-27 06:08:00,
2013-10-27 02:13:00,50.9,30.3,30.09,North,0,0.0,0.0,45,0.00,CLR,FEW,0.00,WeatherDisplay:10.37,2013-10-27 06:13:00,
2013-10-27 02:18:00,51.1,29.9,30.09,North,0,0.0,0.0,44,0.00,CLR,FEW,0.00,WeatherDisplay:10.37,2013-10-27 06:18:00,
2013-10-27 02:24:00,51.1,29.3,30.09,North,0,0.0,0.0,43,0.00,CLR,FEW,0.00,WeatherDisplay:10.37,2013-10-27 06:24:00,
2013-10-27 02:29:00,51.1,29.3,30.09,North,0,0.0,0.0,43,0.00,CLR,FEW,0.00,WeatherDisplay:10.37,2013-10-27 06:29:00,
2013-10-27 02:34:00,51.1,29.3,30.09,North,0,0.0,0.0,43,0.00,CLR,FEW,0.00,WeatherDisplay:10.37,2013-10-27 06:34:00,
2013-10-27 02:39:00,51.1,29.3,30.09,North,0,0.0,0.0,43,0.00,CLR,FEW,0.00,WeatherDisplay:10.37,2013-10-27 06:39:00,
2013-10-27 02:44:00,51.1,28.8,30.09,North,0,0.0,0.0,42,0.00,CLR,FEW,0.00,WeatherDisplay:10.37,2013-10-27 06:44:00,
2013-10-27 02:49:00,51.1,28.2,30.09,North,0,0.0,0.0,41,0.00,CLR,FEW,0.00,WeatherDisplay:10.37,2013-10-27 06:49:00,
2013-10-27 02:55:00,51.3,27.7,30.09,North,0,0.0,0.0,40,0.00,CLR,FEW,0.00,WeatherDisplay:10.37,2013-10-27 06:55:00,
2013-10-27 03:00:00,51.3,27.1,30.09,North,0,0.0,0.0,39,0.00,CLR,FEW,0.00,WeatherDisplay:10.37,2013-10-27 07:00:00,
2013-10-27 03:05:00,51.3,26.5,30.09,North,0,0.0,0.0,38,0.00,CLR,FEW,0.00,WeatherDisplay:10.37,2013-10-27 07:05:00,
2013-10-27 03:10:00,51.3,26.5,30.09,North,0,0.0,0.0,38,0.00,CLR,FEW,0.00,WeatherDisplay:10.37,2013-10-27 07:10:00,
2013-10-27 03:15:00,51.3,26.5,30.09,North,0,0.0,0.0,38,0.00,CLR,FEW,0.00,WeatherDisplay:10.37,2013-10-27 07:15:00,
2013-10-27 03:20:00,51.1,26.3,30.09,North,0,0.0,0.0,38,0.00,CLR,FEW,0.00,WeatherDisplay:10.37,2013-10-27 07:20:00,
2013-10-27 03:25:00,50.9,26.2,30.09,North,0,0.0,0.0,38,0.00,CLR,FEW,0.00,WeatherDisplay:10.37,2013-10-27 07:25:00,
2013-10-27 03:30:00,50.9,26.2,30.09,North,0,0.0,0.0,38,0.00,CLR,FEW,0.00,WeatherDisplay:10.37,2013-10-27 07:30:00,
2013-10-27 03:35:00,50.7,26.0,30.09,North,0,0.0,0.0,38,0.00,CLR,FEW,0.00,WeatherDisplay:10.37,2013-10-27 07:35:00,
2013-10-27 03:40:00,50.5,25.8,30.09,North,0,0.0,0.0,38,0.00,CLR,FEW,0.00,WeatherDisplay:10.37,2013-10-27 07:40:00,
2013-10-27 03:45:00,50.4,25.7,30.06,North,0,0.0,0.0,38,0.00,CLR,FEW,0.00,WeatherDisplay:10.37,2013-10-27 07:45:00,
2013-10-27 03:50:00,50.2,25.5,30.06,North,0,0.0,0.0,38,0.00,CLR,FEW,0.00,WeatherDisplay:10.37,2013-10-27 07:50:00,
2013-10-27 03:55:00,50.2,25.5,30.06,North,0,0.0,0.0,38,0.00,CLR,FEW,0.00,WeatherDisplay:10.37,2013-10-27 07:55:00,
2013-10-27 04:00:00,50.2,25.5,30.06,North,0,0.0,0.0,38,0.00,CLR,FEW,0.00,WeatherDisplay:10.37,2013-10-27 08:00:00,
2013-10-27 04:05:00,50.2,25.5,30.06,North,0,0.0,0.0,38,0.00,CLR,FEW,0.00,WeatherDisplay:10.37,2013-10-27 08:05:00,
2013-10-27 04:10:00,50.2,24.9,30.06,North,0,0.0,0.0,37,0.00,CLR,FEW,0.00,WeatherDisplay:10.37,2013-10-27 08:10:00,
2013-10-27 04:15:00,50.2,24.9,30.06,North,0,0.0,0.0,37,0.00,CLR,FEW,0.00,WeatherDisplay:10.37,2013-10-27 08:15:00,
2013-10-27 04:20:00,50.0,24.7,30.06,North,0,0.0,0.0,37,0.00,CLR,FEW,0.00,WeatherDisplay:10.37,2013-10-27 08:20:00,
2013-10-27 04:25:00,50.0,24.7,30.06,North,0,0.0,0.0,37,0.00,CLR,FEW,0.00,WeatherDisplay:10.37,2013-10-27 08:25:00,
2013-10-27 04:30:00,49.8,25.2,30.06,North,0,0.0,0.0,38,0.00,CLR,FEW,0.00,WeatherDisplay:10.37,2013-10-27 08:30:00,
2013-10-27 04:35:00,49.8,25.2,30.06,North,0,0.0,0.0,38,0.00,CLR,FEW,0.00,WeatherDisplay:10.37,2013-10-27 08:35:00,
2013-10-27 04:40:00,49.5,25.5,30.06,North,0,0.0,0.0,39,0.00,CLR,FEW,0.00,WeatherDisplay:10.37,2013-10-27 08:40:00,
2013-10-27 04:45:00,49.3,25.3,30.06,North,0,0.0,0.0,39,0.00,CLR,FEW,0.00,WeatherDisplay:10.37,2013-10-27 08:45:00,
2013-10-27 04:50:00,49.1,25.8,30.06,North,0,0.0,0.0,40,0.00,CLR,FEW,0.00,WeatherDisplay:10.37,2013-10-27 08:50:00,
2013-10-27 04:55:00,48.9,26.2,30.06,North,0,0.0,0.0,41,0.00,CLR,FEW,0.00,WeatherDisplay:10.37,2013-10-27 08:55:00,
2013-10-27 05:00:00,48.7,26.1,30.06,North,0,0.0,0.0,41,0.00,CLR,FEW,0.00,WeatherDisplay:10.37,2013-10-27 09:00:00,
2013-10-27 05:05:00,48.6,26.5,30.06,North,0,0.0,0.0,42,0.00,CLR,FEW,0.00,WeatherDisplay:10.37,2013-10-27 09:05:00,
2013-10-27 05:10:00,48.4,26.9,30.06,North,0,0.0,0.0,43,0.00,CLR,FEW,0.00,WeatherDisplay:10.37,2013-10-27 09:10:00,
2013-10-27 05:15:00,48.2,27.3,30.09,North,0,0.0,0.0,44,0.00,CLR,FEW,0.00,WeatherDisplay:10.37,2013-10-27 09:15:00,
2013-10-27 05:20:00,47.8,27.0,30.09,North,0,0.0,0.0,44,0.00,CLR,FEW,0.00,WeatherDisplay:10.37,2013-10-27 09:20:00,
2013-10-27 05:25:00,47.7,28.4,30.09,North,0,0.0,0.0,47,0.00,CLR,FEW,0.00,WeatherDisplay:10.37,2013-10-27 09:25:00,
2013-10-27 05:30:00,47.3,28.1,30.09,North,0,0.0,0.0,47,0.00,CLR,FEW,0.00,WeatherDisplay:10.37,2013-10-27 09:30:00,
2013-10-27 05:35:00,47.1,28.4,30.09,North,0,0.0,0.0,48,0.00,CLR,FEW,0.00,WeatherDisplay:10.37,2013-10-27 09:35:00,
2013-10-27 05:40:00,46.9,28.3,30.09,North,0,0.0,0.0,48,0.00,CLR,FEW,0.00,WeatherDisplay:10.37,2013-10-27 09:40:00,
2013-10-27 05:45:00,46.8,28.1,30.09,North,0,0.0,0.0,48,0.00,CLR,FEW,0.00,WeatherDisplay:10.37,2013-10-27 09:45:00,
2013-10-27 05:50:00,46.6,28.4,30.09,North,0,0.0,0.0,49,0.00,CLR,FEW,0.00,WeatherDisplay:10.37,2013-10-27 09:50:00,
2013-10-27 05:55:00,46.6,29.4,30.09,North,0,0.0,0.0,51,0.00,CLR,FEW,0.00,WeatherDisplay:10.37,2013-10-27 09:55:00,
2013-10-27 06:00:00,46.6,30.3,30.09,North,0,0.0,0.0,53,0.00,CLR,FEW,0.00,WeatherDisplay:10.37,2013-10-27 10:00:00,
2013-10-27 06:05:00,46.6,30.8,30.09,North,0,0.0,0.0,54,0.00,CLR,FEW,0.00,WeatherDisplay:10.37,2013-10-27 10:05:00,
2013-10-27 06:10:00,46.6,31.7,30.09,North,0,0.0,0.0,56,0.00,CLR,FEW,0.00,WeatherDisplay:10.37,2013-10-27 10:10:00,
2013-10-27 06:15:00,46.6,32.1,30.09,North,0,0.0,0.0,57,0.00,CLR,FEW,0.00,WeatherDisplay:10.37,2013-10-27 10:15:00,
2013-10-27 06:20:00,46.6,32.1,30.09,North,0,0.0,0.0,57,0.00,CLR,FEW,0.00,WeatherDisplay:10.37,2013-10-27 10:20:00,
2013-10-27 06:25:00,46.6,32.1,30.09,North,0,0.0,0.0,57,0.00,CLR,FEW,0.00,WeatherDisplay:10.37,2013-10-27 10:25:00,
2013-10-27 06:30:00,46.6,32.1,30.09,North,0,0.0,0.0,57,0.00,CLR,FEW,0.00,WeatherDisplay:10.37,2013-10-27 10:30:00,
2013-10-27 06:35:00,46.6,32.1,30.09,North,0,0.0,0.0,57,0.00,CLR,FEW,0.00,WeatherDisplay:10.37,2013-10-27 10:35:00,
2013-10-27 06:40:00,46.6,32.1,30.09,North,0,0.0,0.0,57,0.00,CLR,FEW,0.00,WeatherDisplay:10.37,2013-10-27 10:40:00,
2013-10-27 06:45:00,46.4,32.0,30.09,North,0,0.0,0.0,57,0.00,CLR,FEW,0.00,WeatherDisplay:10.37,2013-10-27 10:45:00,
2013-10-27 06:50:00,46.4,32.0,30.09,North,0,0.0,0.0,57,0.00,CLR,FEW,0.00,WeatherDisplay:10.37,2013-10-27 10:50:00,
2013-10-27 06:55:00,46.2,32.2,30.09,North,0,0.0,0.0,58,0.00,CLR,FEW,0.00,WeatherDisplay:10.37,2013-10-27 10:55:00,
2013-10-27 07:00:00,46.0,32.1,30.09,North,0,0.0,0.0,58,0.00,CLR,FEW,0.00,WeatherDisplay:10.37,2013-10-27 11:00:00,
2013-10-27 07:05:00,46.0,32.1,30.09,North,0,0.0,0.0,58,0.00,CLR,FEW,0.00,WeatherDisplay:10.37,2013-10-27 11:05:00,
2013-10-27 07:10:00,46.0,32.1,30.09,North,0,0.0,0.0,58,0.00,CLR,FEW,0.00,WeatherDisplay:10.37,2013-10-27 11:10:00,
2013-10-27 07:15:00,45.9,31.9,30.09,North,0,0.0,0.0,58,0.00,CLR,FEW,0.00,WeatherDisplay:10.37,2013-10-27 11:15:00,
2013-10-27 07:20:00,45.9,32.3,30.09,North,0,0.0,0.0,59,0.00,CLR,FEW,0.00,WeatherDisplay:10.37,2013-10-27 11:20:00,
2013-10-27 07:25:00,46.0,32.5,30.09,North,0,0.0,0.0,59,0.00,CLR,FEW,0.00,WeatherDisplay:10.37,2013-10-27 11:25:00,
2013-10-27 07:30:00,46.0,33.3,30.09,North,0,0.0,0.0,61,0.00,CLR,FEW,0.00,WeatherDisplay:10.37,2013-10-27 11:30:00,
2013-10-27 07:35:00,46.2,33.9,30.09,North,0,0.0,0.0,62,0.00,CLR,FEW,0.00,WeatherDisplay:10.37,2013-10-27 11:35:00,
2013-10-27 07:40:00,46.2,34.3,30.09,North,0,0.0,0.0,63,0.00,CLR,FEW,0.00,WeatherDisplay:10.37,2013-10-27 11:40:00,
2013-10-27 07:45:00,46.4,34.1,30.09,North,0,0.0,0.0,62,0.00,CLR,FEW,0.00,WeatherDisplay:10.37,2013-10-27 11:45:00,
2013-10-27 07:50:00,46.4,34.1,30.09,North,0,0.0,0.0,62,0.00,CLR,FEW,0.00,WeatherDisplay:10.37,2013-10-27 11:50:00,
2013-10-27 07:55:00,46.4,34.1,30.09,North,0,0.0,0.0,62,0.00,CLR,FEW,0.00,WeatherDisplay:10.37,2013-10-27 11:55:00,
2013-10-27 08:00:00,46.8,34.4,30.09,North,0,0.0,0.0,62,0.00,CLR,FEW,0.00,WeatherDisplay:10.37,2013-10-27 12:00:00,
2013-10-27 08:05:00,46.8,34.4,30.09,North,0,0.0,0.0,62,0.00,CLR,FEW,0.00,WeatherDisplay:10.37,2013-10-27 12:05:00,
2013-10-27 08:10:00,46.9,34.6,30.09,North,0,0.0,0.0,62,0.00,CLR,FEW,0.00,WeatherDisplay:10.37,2013-10-27 12:10:00,
2013-10-27 08:15:00,47.3,35.3,30.09,North,0,0.0,0.0,63,0.00,CLR,FEW,0.00,WeatherDisplay:10.37,2013-10-27 12:15:00,
2013-10-27 08:20:00,47.5,35.5,30.09,North,0,0.0,0.0,63,0.00,CLR,FEW,0.00,WeatherDisplay:10.37,2013-10-27 12:20:00,
2013-10-27 08:25:00,48.0,36.0,30.09,North,0,0.0,0.0,63,0.00,CLR,FEW,0.00,WeatherDisplay:10.37,2013-10-27 12:25:00,
2013-10-27 08:30:00,49.1,37.0,30.12,North,0,0.0,0.0,63,0.00,CLR,FEW,0.00,WeatherDisplay:10.37,2013-10-27 12:30:00,
2013-10-27 08:35:00,49.8,35.6,30.12,North,0,0.0,0.0,58,0.00,CLR,FEW,0.00,WeatherDisplay:10.37,2013-10-27 12:35:00,
2013-10-27 08:40:00,50.7,34.2,30.12,North,0,0.0,0.0,53,0.00,CLR,FEW,0.00,WeatherDisplay:10.37,2013-10-27 12:40:00,
2013-10-27 08:42:00,51.1,34.5,30.12,North,0,0.0,0.0,53,0.00,CLR,FEW,0.00,WeatherDisplay:10.37,2013-10-27 12:42:00,
2013-10-27 08:47:00,52.0,32.4,30.12,North,0,0.0,0.0,47,0.00,CLR,FEW,0.00,WeatherDisplay:10.37,2013-10-27 12:47:00,
2013-10-27 08:52:00,52.7,30.2,30.12,North,0,0.0,0.0,42,0.00,CLR,FEW,0.00,WeatherDisplay:10.37,2013-10-27 12:52:00,
2013-10-27 08:57:00,53.4,30.3,30.12,North,0,0.0,0.0,41,0.00,CLR,FEW,0.00,WeatherDisplay:10.37,2013-10-27 12:57:00,
2013-10-27 09:02:00,54.0,29.5,30.12,North,0,0.0,0.0,39,0.00,CLR,FEW,0.00,WeatherDisplay:10.37,2013-10-27 13:02:00,
2013-10-27 09:07:00,54.7,29.5,30.12,North,0,0.0,0.0,38,0.00,CLR,FEW,0.00,WeatherDisplay:10.37,2013-10-27 13:07:00,
2013-10-27 09:12:00,55.0,29.2,30.12,North,0,0.0,0.0,37,0.00,CLR,FEW,0.00,WeatherDisplay:10.37,2013-10-27 13:12:00,
2013-10-27 09:17:00,55.2,28.7,30.12,North,0,0.0,0.0,36,0.00,CLR,FEW,0.00,WeatherDisplay:10.37,2013-10-27 13:17:00,
2013-10-27 09:22:00,55.6,28.3,30.12,North,0,0.0,0.0,35,0.00,CLR,FEW,0.00,WeatherDisplay:10.37,2013-10-27 13:22:00,
2013-10-27 09:27:00,56.3,28.3,30.12,North,0,0.0,0.0,34,0.00,CLR,FEW,0.00,WeatherDisplay:10.37,2013-10-27 13:27:00,
2013-10-27 09:32:00,56.8,26.5,30.12,North,0,0.0,0.0,31,0.00,CLR,FEW,0.00,WeatherDisplay:10.37,2013-10-27 13:32:00,
2013-10-27 09:38:00,57.4,25.3,30.12,North,0,0.0,0.0,29,0.00,CLR,FEW,0.00,WeatherDisplay:10.37,2013-10-27 13:38:00,
2013-10-27 09:43:00,57.9,26.6,30.12,North,0,0.0,0.0,30,0.00,CLR,FEW,0.00,WeatherDisplay:10.37,2013-10-27 13:43:00,
2013-10-27 09:48:00,58.3,26.1,30.12,North,0,0.0,0.0,29,0.00,CLR,FEW,0.00,WeatherDisplay:10.37,2013-10-27 13:48:00,
2013-10-27 09:53:00,58.5,24.6,30.12,North,0,0.0,0.0,27,0.00,CLR,FEW,0.00,WeatherDisplay:10.37,2013-10-27 13:53:00,
2013-10-27 09:58:00,59.0,25.9,30.12,North,0,0.0,0.0,28,0.00,CLR,FEW,0.00,WeatherDisplay:10.37,2013-10-27 13:58:00,
2013-10-27 10:03:00,59.2,24.3,30.12,North,0,0.0,0.0,26,0.00,CLR,FEW,0.00,WeatherDisplay:10.37,2013-10-27 14:03:00,
2013-10-27 10:08:00,59.5,24.6,30.12,North,0,0.0,0.0,26,0.00,CLR,FEW,0.00,WeatherDisplay:10.37,2013-10-27 14:08:00,
2013-10-27 10:13:00,60.1,25.0,30.12,North,0,0.0,0.0,26,0.00,CLR,FEW,0.00,WeatherDisplay:10.37,2013-10-27 14:13:00,
2013-10-27 10:18:00,60.6,24.6,30.12,North,0,0.0,0.0,25,0.00,CLR,FEW,0.00,WeatherDisplay:10.37,2013-10-27 14:18:00,
2013-10-27 10:23:00,60.6,24.6,30.12,North,0,0.0,0.0,25,0.00,CLR,FEW,0.00,WeatherDisplay:10.37,2013-10-27 14:23:00,
2013-10-27 10:28:00,60.8,23.7,30.12,North,0,0.0,0.0,24,0.00,CLR,FEW,0.00,WeatherDisplay:10.37,2013-10-27 14:28:00,
2013-10-27 10:33:00,61.0,23.9,30.12,North,0,0.0,0.0,24,0.00,CLR,FEW,0.00,WeatherDisplay:10.37,2013-10-27 14:33:00,
2013-10-27 10:38:00,61.3,24.2,30.12,North,0,0.0,0.0,24,0.00,CLR,FEW,0.00,WeatherDisplay:10.37,2013-10-27 14:38:00,
2013-10-27 10:43:00,61.7,21.3,30.12,North,0,0.0,0.0,21,0.00,CLR,FEW,0.00,WeatherDisplay:10.37,2013-10-27 14:43:00,
2013-10-27 10:48:00,62.2,21.8,30.12,North,0,0.0,0.0,21,0.00,CLR,FEW,0.00,WeatherDisplay:10.37,2013-10-27 14:48:00,
2013-10-27 10:53:00,62.6,22.1,30.12,North,0,0.0,0.0,21,0.00,CLR,FEW,0.00,WeatherDisplay:10.37,2013-10-27 14:53:00,
2013-10-27 10:59:00,62.8,18.6,30.12,North,0,0.0,0.0,18,0.00,CLR,FEW,0.00,WeatherDisplay:10.37,2013-10-27 14:59:00,
2013-10-27 11:04:00,63.1,18.9,30.12,North,0,0.0,0.0,18,0.00,CLR,FEW,0.00,WeatherDisplay:10.37,2013-10-27 15:04:00,
2013-10-27 11:09:00,63.5,22.8,30.12,North,0,0.0,0.0,21,0.00,CLR,FEW,0.00,WeatherDisplay:10.37,2013-10-27 15:09:00,
2013-10-27 11:15:00,63.5,19.2,30.12,North,0,0.0,0.0,18,0.00,CLR,FEW,0.00,WeatherDisplay:10.37,2013-10-27 15:15:00,
2013-10-27 11:20:00,63.7,19.3,30.12,North,0,0.0,0.0,18,0.00,CLR,FEW,0.00,WeatherDisplay:10.37,2013-10-27 15:20:00,
2013-10-27 11:26:00,64.2,19.8,30.12,North,0,0.0,0.0,18,0.00,CLR,FEW,0.00,WeatherDisplay:10.37,2013-10-27 15:26:00,
2013-10-27 11:31:00,64.6,20.1,30.12,North,0,0.0,0.0,18,0.00,CLR,FEW,0.00,WeatherDisplay:10.37,2013-10-27 15:31:00,
2013-10-27 11:36:00,64.6,20.1,30.12,North,0,0.0,0.0,18,0.00,CLR,FEW,0.00,WeatherDisplay:10.37,2013-10-27 15:36:00,
2013-10-27 11:41:00,65.3,23.2,30.12,North,0,0.0,0.0,20,0.00,CLR,FEW,0.00,WeatherDisplay:10.37,2013-10-27 15:41:00,
2013-10-27 11:46:00,65.7,21.0,30.12,North,0,0.0,0.0,18,0.00,CLR,FEW,0.00,WeatherDisplay:10.37,2013-10-27 15:46:00,
2013-10-27 11:51:00,65.8,21.1,30.12,North,0,0.0,0.0,18,0.00,CLR,FEW,0.00,WeatherDisplay:10.37,2013-10-27 15:51:00,
2013-10-27 11:56:00,66.0,21.2,30.12,North,0,0.0,0.0,18,0.00,CLR,FEW,0.00,WeatherDisplay:10.37,2013-10-27 15:56:00,
2013-10-27 12:01:00,66.0,23.8,30.12,North,0,0.0,0.0,20,0.00,CLR,FEW,0.00,WeatherDisplay:10.37,2013-10-27 16:01:00,
2013-10-27 12:06:00,66.0,21.2,30.12,North,0,0.0,0.0,18,0.00,CLR,FEW,0.00,WeatherDisplay:10.37,2013-10-27 16:06:00,
2013-10-27 12:11:00,66.0,21.2,30.12,North,0,0.0,0.0,18,0.00,CLR,FEW,0.00,WeatherDisplay:10.37,2013-10-27 16:11:00,
2013-10-27 12:16:00,66.0,21.2,30.12,North,0,0.0,0.0,18,0.00,CLR,FEW,0.00,WeatherDisplay:10.37,2013-10-27 16:16:00,
2013-10-27 12:21:00,66.2,23.9,30.12,North,0,0.0,0.0,20,0.00,CLR,FEW,0.00,WeatherDisplay:10.37,2013-10-27 16:21:00,
2013-10-27 12:26:00,66.4,24.1,30.12,North,0,0.0,0.0,20,0.00,CLR,FEW,0.00,WeatherDisplay:10.37,2013-10-27 16:26:00,
2013-10-27 12:31:00,66.6,24.2,30.09,North,0,0.0,0.0,20,0.00,CLR,FEW,0.00,WeatherDisplay:10.37,2013-10-27 16:31:00,
2013-10-27 12:36:00,66.4,24.1,30.09,North,0,0.0,0.0,20,0.00,CLR,FEW,0.00,WeatherDisplay:10.37,2013-10-27 16:36:00,
2013-10-27 12:41:00,66.4,24.1,30.09,North,0,0.0,0.0,20,0.00,CLR,FEW,0.00,WeatherDisplay:10.37,2013-10-27 16:41:00,
2013-10-27 12:46:00,66.4,24.1,30.09,North,0,0.0,0.0,20,0.00,CLR,FEW,0.00,WeatherDisplay:10.37,2013-10-27 16:46:00,
2013-10-27 12:52:00,66.7,24.3,30.09,North,0,0.0,0.0,20,0.00,CLR,FEW,0.00,WeatherDisplay:10.37,2013-10-27 16:52:00,
2013-10-27 12:57:00,66.4,24.1,30.09,North,0,0.0,0.0,20,0.00,CLR,FEW,0.00,WeatherDisplay:10.37,2013-10-27 16:57:00,
2013-10-27 13:02:00,66.2,23.9,30.09,North,0,0.0,0.0,20,0.00,CLR,FEW,0.00,WeatherDisplay:10.37,2013-10-27 17:02:00,
2013-10-27 13:07:00,66.2,23.9,30.09,North,0,0.0,0.0,20,0.00,CLR,FEW,0.00,WeatherDisplay:10.37,2013-10-27 17:07:00,
2013-10-27 13:12:00,66.2,23.9,30.09,North,0,0.0,0.0,20,0.00,CLR,FEW,0.00,WeatherDisplay:10.37,2013-10-27 17:12:00,
2013-10-27 13:18:00,66.6,24.2,30.09,North,0,0.0,0.0,20,0.00,CLR,FEW,0.00,WeatherDisplay:10.37,2013-10-27 17:18:00,
2013-10-27 13:23:00,66.6,24.2,30.09,North,0,0.0,0.0,20,0.00,CLR,FEW,0.00,WeatherDisplay:10.37,2013-10-27 17:23:00,
2013-10-27 13:28:00,66.7,26.6,30.09,North,0,0.0,0.0,22,0.00,CLR,FEW,0.00,WeatherDisplay:10.37,2013-10-27 17:28:00,
2013-10-27 13:33:00,66.9,24.5,30.09,North,0,0.0,0.0,20,0.00,CLR,FEW,0.00,WeatherDisplay:10.37,2013-10-27 17:33:00,
2013-10-27 13:38:00,66.7,24.3,30.09,North,0,0.0,0.0,20,0.00,CLR,FEW,0.00,WeatherDisplay:10.37,2013-10-27 17:38:00,
2013-10-27 13:43:00,67.1,24.6,30.09,North,0,0.0,0.0,20,0.00,CLR,FEW,0.00,WeatherDisplay:10.37,2013-10-27 17:43:00,
2013-10-27 13:48:00,67.1,24.6,30.09,North,0,0.0,0.0,20,0.00,CLR,FEW,0.00,WeatherDisplay:10.37,2013-10-27 17:48:00,
2013-10-27 13:52:00,67.1,24.6,30.09,North,0,0.0,0.0,20,0.00,CLR,FEW,0.00,WeatherDisplay:10.37,2013-10-27 17:52:00,
2013-10-27 13:57:00,66.9,24.5,30.09,North,0,0.0,0.0,20,0.00,CLR,FEW,0.00,WeatherDisplay:10.37,2013-10-27 17:57:00,
2013-10-27 14:02:00,67.1,26.9,30.09,North,0,0.0,0.0,22,0.00,CLR,FEW,0.00,WeatherDisplay:10.37,2013-10-27 18:02:00,
2013-10-27 14:07:00,67.1,26.9,30.09,North,0,0.0,0.0,22,0.00,CLR,FEW,0.00,WeatherDisplay:10.37,2013-10-27 18:07:00,
2013-10-27 14:12:00,67.3,27.1,30.09,North,0,0.0,0.0,22,0.00,CLR,FEW,0.00,WeatherDisplay:10.37,2013-10-27 18:12:00,
2013-10-27 14:17:00,67.3,27.1,30.06,North,0,0.0,0.0,22,0.00,CLR,FEW,0.00,WeatherDisplay:10.37,2013-10-27 18:17:00,
2013-10-27 14:22:00,67.1,26.9,30.06,North,0,0.0,0.0,22,0.00,CLR,FEW,0.00,WeatherDisplay:10.37,2013-10-27 18:22:00,
2013-10-27 14:27:00,67.1,26.9,30.06,North,0,0.0,0.0,22,0.00,CLR,FEW,0.00,WeatherDisplay:10.37,2013-10-27 18:27:00,
2013-10-27 14:32:00,67.3,27.1,30.06,North,0,0.0,0.0,22,0.00,CLR,FEW,0.00,WeatherDisplay:10.37,2013-10-27 18:32:00,
2013-10-27 14:37:00,67.3,27.1,30.06,North,0,0.0,0.0,22,0.00,CLR,FEW,0.00,WeatherDisplay:10.37,2013-10-27 18:37:00,
2013-10-27 14:42:00,67.1,26.9,30.06,North,0,0.0,0.0,22,0.00,CLR,FEW,0.00,WeatherDisplay:10.37,2013-10-27 18:42:00,
2013-10-27 14:47:00,67.1,28.0,30.06,North,0,0.0,0.0,23,0.00,CLR,FEW,0.00,WeatherDisplay:10.37,2013-10-27 18:47:00,
2013-10-27 14:52:00,66.9,27.9,30.06,North,0,0.0,0.0,23,0.00,CLR,FEW,0.00,WeatherDisplay:10.37,2013-10-27 18:52:00,
2013-10-27 14:58:00,67.1,28.0,30.06,North,0,0.0,0.0,23,0.00,CLR,FEW,0.00,WeatherDisplay:10.37,2013-10-27 18:58:00,
2013-10-27 15:03:00,67.3,28.2,30.06,North,0,0.0,0.0,23,0.00,CLR,FEW,0.00,WeatherDisplay:10.37,2013-10-27 19:03:00,
2013-10-27 15:08:00,67.1,28.0,30.06,North,0,0.0,0.0,23,0.00,CLR,FEW,0.00,WeatherDisplay:10.37,2013-10-27 19:08:00,
2013-10-27 15:13:00,67.1,28.0,30.06,North,0,0.0,0.0,23,0.00,CLR,FEW,0.00,WeatherDisplay:10.37,2013-10-27 19:13:00,
2013-10-27 15:18:00,67.1,28.0,30.06,North,0,0.0,0.0,23,0.00,CLR,FEW,0.00,WeatherDisplay:10.37,2013-10-27 19:18:00,
2013-10-27 15:23:00,66.7,27.7,30.06,North,0,0.0,0.0,23,0.00,CLR,FEW,0.00,WeatherDisplay:10.37,2013-10-27 19:23:00,
2013-10-27 15:28:00,66.4,27.4,30.06,North,0,0.0,0.0,23,0.00,CLR,FEW,0.00,WeatherDisplay:10.37,2013-10-27 19:28:00,
2013-10-27 15:33:00,66.2,27.3,30.06,North,0,0.0,0.0,23,0.00,CLR,FEW,0.00,WeatherDisplay:10.37,2013-10-27 19:33:00,
2013-10-27 15:38:00,66.2,28.3,30.06,North,0,0.0,0.0,24,0.00,CLR,FEW,0.00,WeatherDisplay:10.37,2013-10-27 19:38:00,
2013-10-27 15:43:00,66.2,28.3,30.06,North,0,0.0,0.0,24,0.00,CLR,FEW,0.00,WeatherDisplay:10.37,2013-10-27 19:43:00,
2013-10-27 15:48:00,66.0,28.2,30.06,North,0,0.0,0.0,24,0.00,CLR,FEW,0.00,WeatherDisplay:10.37,2013-10-27 19:48:00,
2013-10-27 15:53:00,66.0,28.2,30.06,North,0,0.0,0.0,24,0.00,CLR,FEW,0.00,WeatherDisplay:10.37,2013-10-27 19:53:00,
2013-10-27 15:58:00,66.0,28.2,30.06,North,0,0.0,0.0,24,0.00,CLR,FEW,0.00,WeatherDisplay:10.37,2013-10-27 19:58:00,
2013-10-27 16:03:00,66.0,28.2,30.06,North,0,0.0,0.0,24,0.00,CLR,FEW,0.00,WeatherDisplay:10.37,2013-10-27 20:03:00,
2013-10-27 16:08:00,66.4,28.5,30.06,North,0,0.0,0.0,24,0.00,CLR,FEW,0.00,WeatherDisplay:10.37,2013-10-27 20:08:00,
2013-10-27 16:13:00,66.4,28.5,30.06,North,0,0.0,0.0,24,0.00,CLR,FEW,0.00,WeatherDisplay:10.37,2013-10-27 20:13:00,
2013-10-27 16:19:00,66.2,28.3,30.06,North,0,0.0,0.0,24,0.00,CLR,FEW,0.00,WeatherDisplay:10.37,2013-10-27 20:19:00,
2013-10-27 16:24:00,66.2,28.3,30.06,North,0,0.0,0.0,24,0.00,CLR,FEW,0.00,WeatherDisplay:10.37,2013-10-27 20:24:00,
2013-10-27 16:29:00,66.2,28.3,30.06,North,0,0.0,0.0,24,0.00,CLR,FEW,0.00,WeatherDisplay:10.37,2013-10-27 20:29:00,
2013-10-27 16:34:00,66.2,28.3,30.06,North,0,0.0,0.0,24,0.00,CLR,FEW,0.00,WeatherDisplay:10.37,2013-10-27 20:34:00,
2013-10-27 16:39:00,66.2,28.3,30.06,North,0,0.0,0.0,24,0.00,CLR,FEW,0.00,WeatherDisplay:10.37,2013-10-27 20:39:00,
2013-10-27 16:44:00,66.2,28.3,30.06,North,0,0.0,0.0,24,0.00,CLR,FEW,0.00,WeatherDisplay:10.37,2013-10-27 20:44:00,
2013-10-27 16:50:00,66.2,28.3,30.06,North,0,0.0,0.0,24,0.00,CLR,FEW,0.00,WeatherDisplay:10.37,2013-10-27 20:50:00,
2013-10-27 16:55:00,66.2,28.3,30.06,North,0,0.0,0.0,24,0.00,CLR,FEW,0.00,WeatherDisplay:10.37,2013-10-27 20:55:00,
2013-10-27 17:00:00,66.0,29.2,30.06,North,0,0.0,0.0,25,0.00,CLR,FEW,0.00,WeatherDisplay:10.37,2013-10-27 21:00:00,
2013-10-27 17:05:00,66.0,30.1,30.06,North,0,0.0,0.0,26,0.00,CLR,FEW,0.00,WeatherDisplay:10.37,2013-10-27 21:05:00,
2013-10-27 17:10:00,65.8,30.0,30.06,North,0,0.0,0.0,26,0.00,CLR,FEW,0.00,WeatherDisplay:10.37,2013-10-27 21:10:00,
2013-10-27 17:15:00,66.0,30.1,30.06,North,0,0.0,0.0,26,0.00,CLR,FEW,0.00,WeatherDisplay:10.37,2013-10-27 21:15:00,
2013-10-27 17:20:00,66.2,30.3,30.06,North,0,0.0,0.0,26,0.00,CLR,FEW,0.00,WeatherDisplay:10.37,2013-10-27 21:20:00,
2013-10-27 17:26:00,66.2,29.3,30.06,North,0,0.0,0.0,25,0.00,CLR,FEW,0.00,WeatherDisplay:10.37,2013-10-27 21:26:00,
2013-10-27 17:32:00,66.0,29.2,30.06,North,0,0.0,0.0,25,0.00,CLR,FEW,0.00,WeatherDisplay:10.37,2013-10-27 21:32:00,
2013-10-27 17:38:00,65.8,30.0,30.06,North,0,0.0,0.0,26,0.00,CLR,FEW,0.00,WeatherDisplay:10.37,2013-10-27 21:38:00,
2013-10-27 17:43:00,65.8,30.0,30.06,North,0,0.0,0.0,26,0.00,CLR,FEW,0.00,WeatherDisplay:10.37,2013-10-27 21:43:00,
2013-10-27 17:48:00,65.7,30.7,30.06,North,0,0.0,0.0,27,0.00,CLR,FEW,0.00,WeatherDisplay:10.37,2013-10-27 21:48:00,
2013-10-27 17:54:00,65.7,31.6,30.06,North,0,0.0,0.0,28,0.00,CLR,FEW,0.00,WeatherDisplay:10.37,2013-10-27 21:54:00,
2013-10-27 17:59:00,65.5,33.2,30.06,North,0,0.0,0.0,30,0.00,CLR,FEW,0.00,WeatherDisplay:10.37,2013-10-27 21:59:00,
2013-10-27 18:05:00,65.3,33.9,30.06,North,0,0.0,0.0,31,0.00,CLR,FEW,0.00,WeatherDisplay:10.37,2013-10-27 22:05:00,
2013-10-27 18:10:00,65.1,33.7,30.06,North,0,0.0,0.0,31,0.00,CLR,FEW,0.00,WeatherDisplay:10.37,2013-10-27 22:10:00,
2013-10-27 18:15:00,64.8,33.4,30.06,North,0,0.0,0.0,31,0.00,CLR,FEW,0.00,WeatherDisplay:10.37,2013-10-27 22:15:00,
2013-10-27 18:20:00,64.4,33.9,30.06,North,0,0.0,0.0,32,0.00,CLR,FEW,0.00,WeatherDisplay:10.37,2013-10-27 22:20:00,
2013-10-27 18:25:00,64.4,34.6,30.06,North,0,0.0,0.0,33,0.00,CLR,FEW,0.00,WeatherDisplay:10.37,2013-10-27 22:25:00,
2013-10-27 18:30:00,64.2,35.2,30.06,North,0,0.0,0.0,34,0.00,CLR,FEW,0.00,WeatherDisplay:10.37,2013-10-27 22:30:00,
2013-10-27 18:35:00,63.9,34.9,30.06,North,0,0.0,0.0,34,0.00,CLR,FEW,0.00,WeatherDisplay:10.37,2013-10-27 22:35:00,
2013-10-27 18:40:00,63.9,34.9,30.06,North,0,0.0,0.0,34,0.00,CLR,FEW,0.00,WeatherDisplay:10.37,2013-10-27 22:40:00,
2013-10-27 18:46:00,63.3,34.4,30.06,North,0,0.0,0.0,34,0.00,CLR,FEW,0.00,WeatherDisplay:10.37,2013-10-27 22:46:00,
2013-10-27 18:51:00,63.1,34.3,30.06,North,0,0.0,0.0,34,0.00,CLR,FEW,0.00,WeatherDisplay:10.37,2013-10-27 22:51:00,
2013-10-27 18:56:00,62.6,34.5,30.06,North,0,0.0,0.0,35,0.00,CLR,FEW,0.00,WeatherDisplay:10.37,2013-10-27 22:56:00,
2013-10-27 19:01:00,61.9,33.9,30.06,North,0,0.0,0.0,35,0.00,CLR,FEW,0.00,WeatherDisplay:10.37,2013-10-27 23:01:00,
2013-10-27 19:06:00,61.3,34.8,30.06,North,0,0.0,0.0,37,0.00,CLR,FEW,0.00,WeatherDisplay:10.37,2013-10-27 23:06:00,
2013-10-27 19:11:00,60.8,34.3,30.06,North,0,0.0,0.0,37,0.00,CLR,FEW,0.00,WeatherDisplay:10.37,2013-10-27 23:11:00,
2013-10-27 19:16:00,60.6,35.5,30.09,North,0,0.0,0.0,39,0.00,CLR,FEW,0.00,WeatherDisplay:10.37,2013-10-27 23:16:00,
2013-10-27 19:21:00,60.1,35.0,30.09,North,0,0.0,0.0,39,0.00,CLR,FEW,0.00,WeatherDisplay:10.37,2013-10-27 23:21:00,
2013-10-27 19:27:00,59.7,35.3,30.09,North,0,0.0,0.0,40,0.00,CLR,FEW,0.00,WeatherDisplay:10.37,2013-10-27 23:27:00,
2013-10-27 19:32:00,59.5,36.4,30.09,North,0,0.0,0.0,42,0.00,CLR,FEW,0.00,WeatherDisplay:10.37,2013-10-27 23:32:00,
2013-10-27 19:37:00,59.4,38.0,30.09,North,0,0.0,0.0,45,0.00,CLR,FEW,0.00,WeatherDisplay:10.37,2013-10-27 23:37:00,
2013-10-27 19:42:00,59.2,38.4,30.09,North,0,0.0,0.0,46,0.00,CLR,FEW,0.00,WeatherDisplay:10.37,2013-10-27 23:42:00,
2013-10-27 19:47:00,59.0,39.9,30.09,North,0,0.0,0.0,49,0.00,CLR,FEW,0.00,WeatherDisplay:10.37,2013-10-27 23:47:00,
2013-10-27 19:52:00,58.8,40.2,30.09,North,0,0.0,0.0,50,0.00,CLR,FEW,0.00,WeatherDisplay:10.37,2013-10-27 23:52:00,
2013-10-27 19:57:00,58.5,40.4,30.09,North,0,0.0,0.0,51,0.00,CLR,FEW,0.00,WeatherDisplay:10.37,2013-10-27 23:57:00,
2013-10-27 20:02:00,58.3,40.7,30.09,North,0,0.0,0.0,52,0.00,CLR,FEW,0.00,WeatherDisplay:10.37,2013-10-28 00:02:00,
2013-10-27 20:07:00,58.1,41.0,30.09,North,0,0.0,0.0,53,0.00,CLR,FEW,0.00,WeatherDisplay:10.37,2013-10-28 00:07:00,
2013-10-27 20:12:00,57.9,41.4,30.09,North,0,0.0,0.0,54,0.00,CLR,FEW,0.00,WeatherDisplay:10.37,2013-10-28 00:12:00,
2013-10-27 20:18:00,57.6,41.5,30.09,North,0,0.0,0.0,55,0.00,CLR,FEW,0.00,WeatherDisplay:10.37,2013-10-28 00:18:00,
2013-10-27 20:23:00,57.6,41.5,30.09,North,0,0.0,0.0,55,0.00,CLR,FEW,0.00,WeatherDisplay:10.37,2013-10-28 00:23:00,
2013-10-27 20:29:00,57.4,42.7,30.09,North,0,0.0,0.0,58,0.00,CLR,FEW,0.00,WeatherDisplay:10.37,2013-10-28 00:29:00,
2013-10-27 20:34:00,57.4,44.0,30.09,North,0,0.0,0.0,61,0.00,CLR,FEW,0.00,WeatherDisplay:10.37,2013-10-28 00:34:00,
2013-10-27 20:40:00,57.2,44.7,30.09,North,0,0.0,0.0,63,0.00,CLR,FEW,0.00,WeatherDisplay:10.37,2013-10-28 00:40:00,
2013-10-27 20:46:00,57.0,45.4,30.09,North,0,0.0,0.0,65,0.00,CLR,FEW,0.00,WeatherDisplay:10.37,2013-10-28 00:46:00,
2013-10-27 20:51:00,56.8,45.2,30.09,North,0,0.0,0.0,65,0.00,CLR,FEW,0.00,WeatherDisplay:10.37,2013-10-28 00:51:00,
2013-10-27 20:57:00,56.7,45.0,30.09,North,0,0.0,0.0,65,0.00,CLR,FEW,0.00,WeatherDisplay:10.37,2013-10-28 00:57:00,
2013-10-27 21:02:00,56.7,45.0,30.09,North,0,0.0,0.0,65,0.00,CLR,FEW,0.00,WeatherDisplay:10.37,2013-10-28 01:02:00,
2013-10-27 21:07:00,56.5,44.9,30.09,North,0,0.0,0.0,65,0.00,CLR,FEW,0.00,WeatherDisplay:10.37,2013-10-28 01:07:00,
2013-10-27 21:12:00,56.3,45.1,30.09,North,0,0.0,0.0,66,0.00,CLR,FEW,0.00,WeatherDisplay:10.37,2013-10-28 01:12:00,
2013-10-27 21:18:00,56.3,45.1,30.09,North,0,0.0,0.0,66,0.00,CLR,FEW,0.00,WeatherDisplay:10.37,2013-10-28 01:18:00,
2013-10-27 21:23:00,56.3,45.1,30.09,North,0,0.0,0.0,66,0.00,CLR,FEW,0.00,WeatherDisplay:10.37,2013-10-28 01:23:00,
2013-10-27 21:28:00,56.1,45.3,30.09,North,0,0.0,0.0,67,0.00,CLR,FEW,0.00,WeatherDisplay:10.37,2013-10-28 01:28:00,
2013-10-27 21:33:00,55.9,45.1,30.09,North,0,0.0,0.0,67,0.00,CLR,FEW,0.00,WeatherDisplay:10.37,2013-10-28 01:33:00,
2013-10-27 21:38:00,55.9,45.5,30.09,North,0,0.0,0.0,68,0.00,CLR,FEW,0.00,WeatherDisplay:10.37,2013-10-28 01:38:00,
2013-10-27 21:43:00,55.9,46.3,30.12,North,0,0.0,0.0,70,0.00,CLR,FEW,0.00,WeatherDisplay:10.37,2013-10-28 01:43:00,
2013-10-27 21:49:00,55.8,46.5,30.12,North,0,0.0,0.0,71,0.00,CLR,FEW,0.00,WeatherDisplay:10.37,2013-10-28 01:49:00,
2013-10-27 21:54:00,55.8,46.5,30.12,North,0,0.0,0.0,71,0.00,CLR,FEW,0.00,WeatherDisplay:10.37,2013-10-28 01:54:00,
2013-10-27 21:59:00,55.6,46.3,30.12,North,0,0.0,0.0,71,0.00,CLR,FEW,0.00,WeatherDisplay:10.37,2013-10-28 01:59:00,
2013-10-27 22:05:00,55.6,46.3,30.12,North,0,0.0,0.0,71,0.00,CLR,FEW,0.00,WeatherDisplay:10.37,2013-10-28 02:05:00,
2013-10-27 22:10:00,55.4,46.2,30.12,North,0,0.0,0.0,71,0.00,CLR,FEW,0.00,WeatherDisplay:10.37,2013-10-28 02:10:00,
2013-10-27 22:15:00,55.4,46.5,30.12,North,0,0.0,0.0,72,0.00,CLR,FEW,0.00,WeatherDisplay:10.37,2013-10-28 02:15:00,
2013-10-27 22:20:00,55.4,46.5,30.12,North,0,0.0,0.0,72,0.00,CLR,FEW,0.00,WeatherDisplay:10.37,2013-10-28 02:20:00,
2013-10-27 22:25:00,55.2,46.7,30.12,North,0,0.0,0.0,73,0.00,CLR,FEW,0.00,WeatherDisplay:10.37,2013-10-28 02:25:00,
2013-10-27 22:31:00,55.2,46.7,30.12,North,0,0.0,0.0,73,0.00,CLR,FEW,0.00,WeatherDisplay:10.37,2013-10-28 02:31:00,
2013-10-27 22:37:00,55.0,46.5,30.12,North,0,0.0,0.0,73,0.00,CLR,FEW,0.00,WeatherDisplay:10.37,2013-10-28 02:37:00,
2013-10-27 22:42:00,55.0,46.9,30.12,North,0,0.0,0.0,74,0.00,CLR,FEW,0.00,WeatherDisplay:10.37,2013-10-28 02:42:00,
2013-10-27 22:47:00,55.0,46.9,30.12,North,0,0.0,0.0,74,0.00,CLR,FEW,0.00,WeatherDisplay:10.37,2013-10-28 02:47:00,
2013-10-27 22:52:00,55.0,47.3,30.12,North,0,0.0,0.0,75,0.00,CLR,FEW,0.00,WeatherDisplay:10.37,2013-10-28 02:52:00,
2013-10-27 22:57:00,55.0,47.3,30.12,North,0,0.0,0.0,75,0.00,CLR,FEW,0.00,WeatherDisplay:10.37,2013-10-28 02:57:00,
2013-10-27 23:02:00,55.0,47.3,30.12,North,0,0.0,0.0,75,0.00,CLR,FEW,0.00,WeatherDisplay:10.37,2013-10-28 03:02:00,
2013-10-27 23:07:00,55.0,47.6,30.12,North,0,0.0,0.0,76,0.00,CLR,FEW,0.00,WeatherDisplay:10.37,2013-10-28 03:07:00,
2013-10-27 23:12:00,54.9,47.4,30.12,North,0,0.0,0.0,76,0.00,CLR,FEW,0.00,WeatherDisplay:10.37,2013-10-28 03:12:00,
2013-10-27 23:17:00,54.9,47.8,30.12,North,0,0.0,0.0,77,0.00,CLR,FEW,0.00,WeatherDisplay:10.37,2013-10-28 03:17:00,
2013-10-27 23:22:00,54.7,47.6,30.12,North,0,0.0,0.0,77,0.00,CLR,FEW,0.00,WeatherDisplay:10.37,2013-10-28 03:22:00,
2013-10-27 23:27:00,54.7,47.6,30.12,North,0,0.0,0.0,77,0.00,CLR,FEW,0.00,WeatherDisplay:10.37,2013-10-28 03:27:00,
2013-10-27 23:32:00,54.5,47.8,30.12,North,0,0.0,0.0,78,0.00,CLR,FEW,0.00,WeatherDisplay:10.37,2013-10-28 03:32:00,
2013-10-27 23:37:00,54.5,48.1,30.12,North,0,0.0,0.0,79,0.00,CLR,FEW,0.00,WeatherDisplay:10.37,2013-10-28 03:37:00,
2013-10-27 23:42:00,54.5,48.5,30.12,North,0,0.0,0.0,80,0.00,CLR,FEW,0.00,WeatherDisplay:10.37,2013-10-28 03:42:00,
2013-10-27 23:47:00,54.5,48.5,30.12,North,0,0.0,0.0,80,0.00,CLR,FEW,0.00,WeatherDisplay:10.37,2013-10-28 03:47:00,
2013-10-27 23:52:00,54.3,48.3,30.12,North,0,0.0,0.0,80,0.00,CLR,FEW,0.00,WeatherDisplay:10.37,2013-10-28 03:52:00,
2013-10-27 23:58:00,54.3,48.3,30.12,North,0,0.0,0.0,80,0.00,CLR,FEW,0.00,WeatherDisplay:10.37,2013-10-28 03:58:00,